Theta_e
301 302 303 304 305 305 306 306 305 305 306 307 305 306 307 309 304 302 309 311 309 310 312 315 316 317 318 316 318 321 323 322 325 335 329 323 330 338 340 347 351 351 349 351 350 349 350 347 347 349 348 349 351 352 352 353 351 352 355 355 356 356 358 360 361 362 363 363 364 364 364 365 364 364 362 363 363 363 364 364 363 362 363 363 365 367 368
300 302 302 303 303 304 304 305 305 306 306 306 306 306 307 307 308 309 310 312 310 312 313 315 315 318 317 318 320 321 321 319 323 325 327 322 323 325 332 343 346 354 354 354 354 351 351 347 347 346 348 351 349 350 350 351 352 352 354 355 356 356 356 359 362 363 364 364 365 365 365 364 365 365 363 363 362 363 363 364 365 365 365 364 364 365 366
300 301 303 302 302 302 302 304 305 306 306 307 307 307 307 308 307 308 308 310 309 314 318 317 318 319 318 319 317 318 321 320 319 320 320 324 323 325 332 344 344 349 354 352 354 353 352 350 348 347 349 351 350 349 349 350 352 352 352 355 355 356 357 360 363 364 365 365 366 365 365 366 366 366 364 364 364 364 364 365 365 366 365 363 362 364 365
298 300 300 301 301 302 301 302 303 304 304 303 305 305 307 306 306 308 307 306 307 313 316 318 319 318 318 317 317 317 318 318 320 320 321 325 326 327 327 330 341 349 350 352 351 352 351 350 349 348 350 350 349 347 348 349 350 352 352 353 354 358 358 362 364 364 364 366 366 366 366 366 366 367 365 364 364 365 364 364 366 366 364 364 365 364 364
297 300 300 299 300 300 298 300 303 305 306 307 307 308 309 309 309 306 304 306 312 315 316 314 316 316 316 316 317 318 319 322 321 322 322 322 323 325 328 328 344 340 338 343 353 349 348 348 347 348 350 348 349 350 350 351 353 351 350 352 357 360 360 362 364 366 367 366 366 367 367 366 367 367 366 365 364 364 363 366 366 366 366 364 364 364 364
297 298 298 299 297 292 295 308 309 308 305 306 305 305 307 310 310 308 311 312 315 315 315 314 315 315 317 318 321 322 322 322 324 323 324 324 325 326 325 327 335 341 343 343 342 346 350 349 345 347 350 347 348 350 350 351 351 353 353 353 357 360 362 363 366 368 367 367 367 367 368 368 367 367 366 365 364 364 364 366 366 366 365 365 365 366 365
294 298 298 294 290 293 307 310 313 312 310 310 309 309 309 310 312 311 311 312 313 315 316 317 318 320 320 321 321 320 322 328 332 329 325 326 328 330 332 335 335 342 350 351 351 347 343 344 347 347 346 347 348 349 350 349 352 357 354 355 355 360 362 362 365 367 367 366 367 368 368 368 367 367 366 366 365 364 364 364 365 365 364 365 365 366 366
297 295 295 288 292 302 304 309 312 315 315 314 311 308 311 312 312 312 314 315 314 316 315 316 318 319 319 322 328 329 326 325 329 326 324 325 325 326 332 346 356 360 354 352 348 349 349 346 344 346 346 347 345 345 348 348 349 351 353 355 354 358 361 362 364 366 365 366 366 366 366 367 366 365 366 366 365 365 364 363 365 365 366 366 365 365 364
291 294 294 294 303 300 303 305 309 311 311 311 308 302 306 312 321 319 318 321 318 317 319 322 321 325 323 320 320 322 322 326 329 328 326 326 333 344 350 350 349 355 359 357 354 355 351 347 344 344 345 345 345 344 345 346 349 350 352 355 356 358 360 362 364 366 366 364 364 365 365 365 364 364 364 365 365 366 364 363 363 364 364 363 365 363 363
296 293 292 294 293 291 298 307 313 317 317 317 317 313 311 320 323 322 323 321 324 324 325 328 332 330 320 315 316 321 321 323 329 335 336 340 344 345 346 352 353 356 357 358 358 357 354 351 348 347 346 346 346 346 346 346 348 349 350 354 358 361 362 364 365 367 366 365 365 365 365 364 364 364 365 366 366 366 364 363 362 364 365 364 365 365 364
294 293 290 291 291 296 307 311 314 315 318 314 321 307 303 322 325 324 325 323 327 328 328 330 333 324 314 312 318 345 344 337 339 340 344 344 345 349 350 351 351 353 358 361 360 360 360 351 348 348 347 347 344 346 347 345 347 350 351 355 359 361 363 365 367 367 366 366 366 366 365 365 365 365 365 366 367 367 365 365 364 366 365 365 364 364 362
293 293 291 290 295 296 306 312 313 316 318 315 315 298 300 319 324 322 326 324 327 328 330 330 330 326 317 314 330 338 342 340 345 344 347 348 349 350 351 353 356 357 359 360 359 354 351 352 350 351 346 346 348 347 346 345 345 348 351 356 361 363 364 365 368 367 367 367 367 366 366 367 367 366 367 367 367 366 366 364 363 364 363 364 363 362 362
292 291 292 295 297 303 307 310 315 316 315 313 302 295 313 318 323 324 326 325 327 328 328 329 326 332 333 334 336 338 340 340 344 346 346 347 348 350 351 351 352 356 357 357 355 354 360 358 354 350 346 346 347 349 350 349 347 348 353 358 362 364 364 364 366 366 366 367 367 367 368 368 368 367 367 366 366 366 364 363 363 363 364 363 362 363 363
290 292 290 291 297 304 307 308 308 313 306 299 299 314 319 323 322 327 326 326 328 329 329 328 329 332 333 335 336 336 338 340 343 344 345 347 349 350 351 352 352 354 354 356 355 353 355 355 351 350 351 349 350 352 352 351 351 351 356 361 365 365 365 365 366 367 367 369 369 367 368 368 367 366 367 367 367 366 364 364 364 363 364 362 359 360 360
293 293 290 288 284 301 309 311 307 312 301 304 318 320 325 323 327 325 327 328 329 328 328 330 331 331 332 333 334 336 337 338 341 344 344 346 346 347 348 350 351 351 354 353 353 354 354 356 356 354 350 352 354 354 354 356 353 355 357 363 366 365 365 364 365 367 368 367 366 364 364 366 367 366 367 366 366 367 366 365 363 361 360 360 359 358 358
289 289 288 288 298 307 312 312 306 316 315 320 323 323 316 325 325 327 328 329 329 328 328 328 329 331 332 333 334 335 336 338 340 342 343 344 345 345 346 346 346 350 353 353 353 354 354 357 360 361 357 355 357 357 357 366 361 360 363 365 366 364 364 364 364 366 367 365 365 363 364 365 365 365 365 364 365 366 366 363 359 358 358 359 357 356 357
294 293 295 303 306 309 311 312 315 319 320 323 324 324 324 324 325 327 326 327 329 329 328 329 330 330 331 331 331 332 334 336 337 339 340 341 342 344 344 343 345 347 348 349 349 351 352 355 357 361 364 361 362 362 363 366 363 362 364 364 363 361 362 363 364 366 366 365 365 364 364 363 364 363 365 366 364 366 365 362 359 358 358 358 356 357 356
303 304 304 306 306 307 309 313 316 315 317 322 323 323 323 325 327 327 326 327 327 326 328 328 330 330 330 330 331 333 334 335 337 339 340 341 343 343 343 345 344 345 346 347 347 347 349 352 354 357 357 358 357 358 361 363 366 363 362 361 362 361 362 363 363 364 364 364 364 364 364 364 365 365 365 364 363 363 362 359 359 359 358 356 356 357 356
295 291 304 304 305 308 310 311 313 315 317 321 323 322 324 326 327 328 328 328 327 325 327 326 326 327 329 330 331 332 334 336 337 337 339 339 340 341 341 343 344 345 345 344 343 344 345 349 352 353 354 356 357 359 360 361 364 367 365 362 361 360 360 360 363 363 363 360 360 361 364 362 363 364 364 364 364 362 362 359 359 358 357 356 355 355 355
293 294 301 303 306 307 309 309 309 310 316 319 320 321 323 325 327 328 328 328 326 326 323 324 325 326 326 326 329 332 333 334 336 337 338 339 340 341 344 345 345 344 343 343 342 343 343 348 351 351 351 353 355 357 357 361 364 366 365 363 361 361 361 361 361 362 360 362 360 359 361 364 361 362 364 364 362 361 361 360 358 357 357 355 355 355 354
297 301 302 303 304 305 305 307 309 311 315 317 317 319 322 324 325 327 329 329 327 326 325 326 325 325 324 325 327 329 331 332 334 336 337 337 338 340 341 343 344 343 344 342 342 343 344 347 347 348 349 350 353 355 357 361 363 364 363 361 364 364 364 363 362 364 363 363 359 358 361 363 362 362 361 362 363 362 363 364 362 358 358 356 357 358 356
293 294 299 305 298 299 305 309 315 314 315 315 314 317 320 322 324 326 328 328 328 327 326 326 325 324 324 325 327 328 328 330 332 333 335 337 338 339 340 340 342 342 343 343 343 342 343 345 345 346 346 347 349 351 354 357 358 356 356 357 358 358 358 357 359 359 361 358 360 358 357 357 360 362 333 320 346 361 362 339 323 316 326 355 357 355 357
293 300 304 307 306 304 305 307 310 312 313 314 314 315 317 321 323 325 327 328 327 326 326 327 324 324 324 325 327 327 327 329 331 332 333 334 336 337 339 339 339 340 341 342 343 343 343 344 344 345 345 347 348 349 350 352 354 356 354 352 352 352 353 354 352 356 355 356 357 356 357 356 356 356 357 360 317 319 330 334 326 317 314 313 313 315 340
300 302 303 305 302 300 304 308 310 311 313 313 313 314 316 321 323 324 326 328 326 325 327 326 327 326 326 328 329 329 329 330 331 332 334 336 337 338 338 337 338 339 339 340 341 340 343 344 344 345 345 346 348 348 349 349 351 352 352 354 352 352 352 352 351 355 355 356 356 357 358 358 359 354 352 353 361 327 311 321 318 311 309 306 305 306 308
299 305 306 305 305 306 308 309 310 311 313 313 312 314 317 321 323 325 325 325 328 327 327 326 330 330 330 330 331 330 330 330 331 333 334 334 335 335 337 338 339 339 339 339 340 342 342 343 343 344 344 345 347 347 348 348 348 348 348 348 348 349 349 350 348 350 351 352 354 354 354 354 354 354 352 346 339 339 354 313 310 313 310 306 304 304 305
304 303 304 305 305 306 308 309 309 310 311 312 313 315 319 323 323 326 326 326 327 327 326 328 328 330 332 331 331 332 332 332 332 334 334 334 335 335 335 335 337 339 340 341 342 342 342 342 342 343 343 344 347 347 346 346 346 345 345 344 345 344 346 347 348 348 348 349 348 347 349 348 347 343 339 338 336 338 336 336 344 330 308 301 302 303 302
305 306 304 302 302 304 307 305 305 311 313 315 317 319 321 325 324 324 326 327 327 328 328 328 329 330 332 331 331 332 332 332 333 332 333 334 333 334 336 337 337 338 339 339 340 340 340 341 341 341 341 343 345 345 345 345 344 343 342 342 341 340 341 343 346 346 346 346 346 347 345 344 341 338 338 339 339 337 335 334 334 333 335 343 321 305 327
305 306 304 299 299 302 306 310 311 311 312 313 316 319 322 325 325 323 323 323 325 326 327 328 329 329 329 331 331 329 330 331 330 331 331 332 334 336 338 337 337 337 338 338 339 340 340 340 341 341 342 344 345 345 344 344 344 343 342 341 341 341 341 342 343 345 345 346 347 347 346 344 342 338 338 339 337 337 335 339 335 334 334 336 337 322 313
306 306 307 306 306 307 309 311 312 314 317 319 320 320 321 322 323 321 323 322 323 324 325 325 327 328 328 329 330 329 330 330 329 330 331 332 334 335 337 338 339 339 338 338 338 339 339 339 339 339 341 344 345 346 345 344 343 342 342 341 341 341 341 342 343 344 343 345 347 345 337 339 340 341 340 339 337 338 340 336 335 333 333 334 333 332 325
307 308 308 307 308 309 308 309 310 313 316 319 319 319 320 321 321 322 322 322 322 322 324 325 325 325 327 327 329 328 328 329 329 330 331 331 332 334 336 337 337 337 337 336 337 339 338 338 338 338 339 343 343 344 343 344 343 343 341 339 340 342 344 345 346 346 345 344 341 335 342 342 342 343 339 340 340 338 336 335 333 333 332 332 324 329 327
308 308 309 309 310 310 309 309 312 315 317 318 318 317 319 321 320 322 321 322 321 321 324 324 323 324 325 326 328 328 328 329 329 330 330 330 331 332 333 334 332 331 332 334 337 337 337 336 336 337 340 342 342 342 343 342 342 343 344 344 341 329 327 328 334 343 342 342 341 342 341 340 340 340 336 336 337 336 336 336 335 334 333 332 330 328 327
307 307 308 308 309 310 312 313 314 314 315 316 315 315 317 318 319 319 319 319 319 319 322 324 324 324 325 327 328 328 329 329 330 330 329 329 330 331 332 332 332 332 333 334 335 335 335 335 335 337 340 341 342 343 342 341 341 340 340 340 341 341 334 329 337 337 338 339 340 340 338 340 337 338 337 336 336 336 335 335 334 333 332 330 329 328 327
307 307 307 307 309 311 312 314 312 312 314 313 314 316 318 321 322 321 319 319 318 319 321 323 325 326 326 326 328 328 328 328 329 329 328 328 330 331 331 331 332 333 333 333 334 334 335 334 335 337 340 340 340 341 341 341 341 340 339 339 339 339 337 333 332 337 338 337 336 336 338 338 338 338 336 336 336 336 335 334 332 332 332 330 330 330 327
310 310 313 316 315 311 310 312 314 314 315 315 316 317 318 321 320 319 319 320 319 318 320 322 324 325 326 326 326 327 327 326 324 324 325 326 328 330 330 330 330 331 331 332 332 333 334 335 336 336 337 338 339 339 339 340 340 341 341 340 337 336 336 336 335 336 335 335 335 338 339 339 338 336 336 335 335 335 333 334 331 331 331 331 332 332 320
317 316 319 317 318 317 316 315 315 315 315 315 316 318 321 321 321 320 319 319 320 322 323 324 325 325 323 320 320 321 322 321 321 322 323 325 326 327 329 329 330 330 328 329 330 331 334 334 335 336 336 335 336 335 337 338 339 339 340 340 339 337 337 336 336 336 336 336 339 336 337 336 335 335 335 334 334 336 335 333 332 330 329 330 330 330 328
318 319 319 319 318 319 320 319 318 318 317 317 317 318 320 320 321 321 320 321 321 324 324 324 324 321 319 319 319 319 320 321 322 322 323 323 324 326 325 324 325 324 324 326 328 330 332 332 334 335 333 333 333 334 335 338 338 338 339 339 338 338 336 336 336 336 336 337 336 336 334 334 336 333 334 334 334 334 333 334 333 332 331 331 329 328 329
318 318 318 319 320 320 319 320 321 320 320 319 319 320 320 321 321 324 324 322 323 324 323 321 319 318 318 319 320 321 322 323 322 322 322 323 324 322 322 321 321 321 321 321 325 329 329 330 332 333 332 332 333 334 334 334 336 337 336 336 335 336 335 336 336 336 336 336 335 336 335 335 336 336 334 333 332 332 331 332 332 331 332 330 330 329 328
312 313 316 318 319 320 321 322 321 322 320 319 320 323 323 322 322 321 320 321 322 321 321 320 319 319 319 321 321 320 321 322 322 321 321 321 321 320 320 319 319 319 319 320 325 327 328 330 331 331 331 331 331 332 332 333 334 333 334 333 333 333 332 333 333 333 333 335 334 336 335 335 336 336 335 335 335 334 333 332 331 331 331 332 330 330 330
310 311 312 313 313 314 315 316 317 317 317 317 317 319 323 322 320 320 318 318 319 321 321 321 320 319 319 319 319 319 318 320 319 319 319 320 320 319 317 319 320 321 321 323 323 324 325 327 328 327 327 328 329 329 331 331 333 332 332 332 332 331 331 330 330 329 330 332 332 331 333 331 332 333 334 333 334 332 331 329 332 332 330 331 331 330 330
308 308 309 310 310 310 311 311 312 313 313 314 314 314 315 316 317 318 318 318 318 321 320 320 319 317 316 316 316 315 317 318 319 319 318 318 318 318 318 319 321 322 322 323 321 322 324 325 325 324 324 324 325 326 327 327 328 329 330 329 330 328 328 328 328 328 328 329 328 328 328 329 329 329 329 329 331 331 332 331 331 330 330 331 332 332 331
308 308 308 308 308 309 309 310 310 311 311 312 311 311 312 312 313 313 313 314 315 316 316 316 316 316 315 315 315 315 315 316 316 316 317 317 315 315 314 314 319 320 319 319 320 321 321 322 322 321 321 321 321 323 323 324 324 324 325 324 324 324 325 326 326 326 326 326 326 326 326 327 326 326 326 327 326 327 328 329 330 329 329 330 331 330 329
308 308 308 308 308 308 308 308 309 309 309 310 311 310 310 310 310 309 310 311 311 312 313 314 316 315 316 314 313 312 312 313 313 314 315 314 314 313 312 313 317 316 319 318 319 318 318 317 318 320 320 320 321 322 322 322 321 320 320 320 320 321 321 321 322 322 325 326 326 326 326 326 326 326 325 326 325 324 325 325 326 326 328 327 326 327 327
308 308 308 308 308 309 308 308 307 307 308 309 309 309 310 310 309 309 310 310 310 310 310 311 313 313 313 313 314 312 310 311 310 311 311 311 313 314 314 313 314 313 316 314 314 314 314 315 314 315 317 318 318 321 321 319 319 319 319 318 317 317 318 318 318 320 321 321 322 323 324 324 323 324 322 323 323 323 323 323 323 323 323 325 326 326 327
308 308 308 308 307 308 308 308 308 308 307 307 309 309 309 309 309 309 309 310 310 310 309 308 309 309 310 310 310 310 310 311 309 309 308 308 308 310 313 312 312 313 314 311 311 312 312 313 313 313 315 316 317 318 317 317 316 317 317 317 316 316 315 315 316 316 316 317 318 319 319 319 319 319 320 318 318 319 318 318 320 321 322 322 323 324 323
308 308 309 308 309 309 308 307 306 306 307 308 308 308 308 308 308 309 309 309 309 309 310 309 309 308 308 308 308 308 309 309 309 309 306 305 305 305 310 313 311 311 312 312 310 310 312 311 311 314 314 314 314 315 313 313 313 314 315 315 315 315 315 315 314 314 314 314 315 315 316 316 315 315 315 315 315 315 314 313 314 316 319 319 320 320 320
307 308 308 309 308 308 309 309 309 308 307 307 306 307 308 308 308 309 309 309 308 308 308 307 308 308 308 307 307 308 308 308 308 308 309 308 307 308 310 311 310 311 311 312 310 310 311 313 312 311 312 312 313 311 312 312 312 311 312 312 313 313 314 314 314 314 313 313 312 313 314 314 314 313 313 313 313 313 312 310 311 311 312 313 314 316 319
306 307 307 307 307 309 310 309 309 308 307 306 304 304 306 306 306 306 307 307 307 306 306 306 306 307 307 308 308 306 304 304 306 307 308 308 310 310 311 312 312 311 310 308 309 310 310 310 310 310 311 311 311 309 310 310 311 310 310 310 310 311 312 313 313 313 313 313 312 312 311 311 312 312 312 312 311 310 310 309 309 309 309 309 310 310 311
306 306 306 307 307 308 309 308 307 306 306 305 306 306 306 306 306 306 306 306 306 306 306 306 307 307 307 307 308 308 307 306 302 303 307 306 307 308 309 309 309 310 310 310 309 310 309 310 310 310 310 310 309 308 308 308 309 309 309 309 309 309 308 309 311 312 312 312 312 313 311 311 311 310 310 310 310 310 308 307 306 308 308 307 307 307 307
308 307 306 306 307 307 307 306 306 306 305 307 308 307 308 307 307 307 306 306 306 305 305 305 306 306 307 308 308 307 308 308 306 303 306 306 306 306 307 308 309 309 309 308 308 308 308 308 309 309 309 309 307 308 307 307 307 308 307 307 307 307 307 306 307 309 309 309 310 310 311 310 310 310 309 309 309 309 308 307 306 305 305 306 307 306 306
308 307 306 305 305 304 305 305 305 305 306 307 306 306 307 307 305 305 306 306 305 305 304 304 304 305 305 305 306 306 307 307 307 307 306 306 306 306 306 307 308 308 308 307 308 307 308 308 308 308 308 308 307 307 307 306 306 306 306 306 306 306 306 304 304 303 305 307 306 307 308 308 309 308 308 308 308 308 308 307 307 305 304 304 305 304 304
306 305 306 307 306 306 306 306 306 307 306 306 306 306 306 305 304 305 305 306 306 304 304 304 305 305 305 305 305 305 305 305 306 307 306 306 306 306 306 306 306 306 306 305 306 305 306 306 306 307 306 306 306 305 305 305 305 305 305 305 305 305 305 306 305 305 305 304 304 304 304 306 306 307 308 307 307 307 307 306 306 306 305 305 304 303 302
305 307 307 307 307 306 306 306 306 306 306 306 305 305 304 304 303 303 304 306 305 304 304 304 303 305 306 305 305 304 304 304 305 304 305 305 304 304 305 305 304 304 304 304 304 305 305 305 305 306 306 305 305 305 305 304 304 304 305 305 305 304 304 304 305 305 305 305 304 303 303 303 303 303 303 304 305 305 305 305 305 305 305 304 304 304 302
Wind_Speed
2 3 2 3 1 1 1 8 14 21 19 20 23 20 17 14 13 9 7 12 15 14 13 9 7 5 5 5 7 6 6 7 5 1 6 9 4 7 8 8 8 10 11 11 13 13 14 16 18 19 18 18 17 17 18 18 19 20 18 19 20 20 19 19 19 19 18 17 17 17 17 17 18 18 18 17 17 17 16 16 15 18 18 17 16 16 15
2 3 2 2 4 2 6 8 7 9 14 17 17 16 17 20 15 11 12 9 13 12 14 15 14 12 11 10 10 12 13 13 10 9 9 10 7 3 4 7 9 10 10 9 11 12 13 16 17 18 17 17 19 19 19 19 19 19 17 18 19 19 20 19 17 17 17 16 16 17 17 18 18 18 18 17 18 18 17 17 15 15 16 16 17 16 16
5 6 5 3 5 3 7 9 10 11 10 10 12 12 14 14 15 17 16 16 15 11 9 10 11 9 8 8 10 11 13 16 17 16 13 11 10 9 6 5 7 6 7 8 9 12 14 15 17 17 16 16 17 19 18 19 19 19 18 17 18 19 19 18 16 16 16 16 16 17 18 17 17 18 18 16 16 16 17 16 16 15 15 17 17 16 17
7 7 8 5 3 7 9 11 13 13 14 15 12 12 11 13 13 13 13 13 12 8 9 6 7 8 10 11 12 12 12 14 15 15 14 13 12 13 12 9 3 5 6 8 10 12 14 15 17 17 16 17 17 19 19 19 19 18 18 19 19 18 18 16 16 17 17 16 16 17 17 18 17 17 16 17 16 16 16 17 15 15 16 17 16 16 15
7 8 5 4 5 6 12 16 16 16 17 16 13 14 14 14 12 14 16 14 8 9 9 12 10 11 13 13 13 12 14 14 15 16 16 15 15 15 13 12 6 6 7 8 10 11 12 13 15 18 17 16 17 18 17 17 14 16 19 19 17 16 16 16 16 16 15 16 17 16 17 17 16 15 16 17 17 17 17 16 15 16 16 16 17 16 16
6 5 3 2 6 12 12 2 11 18 18 16 17 14 15 15 15 13 12 10 7 9 9 9 10 11 11 10 11 11 11 12 13 15 15 15 16 16 15 13 9 6 5 5 6 8 10 11 14 14 16 18 17 16 16 14 16 16 17 17 16 15 15 15 15 15 15 16 16 17 16 16 15 16 17 18 17 16 15 15 15 15 16 17 16 16 16
6 3 3 6 12 10 6 3 4 2 8 8 11 10 12 13 13 15 16 13 12 10 7 6 7 8 9 11 13 13 12 8 8 11 13 14 13 13 13 13 13 8 5 5 6 7 8 9 10 12 14 16 14 14 16 17 17 15 16 17 16 16 16 17 16 16 16 17 16 15 15 15 15 16 17 16 16 16 15 16 16 17 17 17 16 16 16
6 6 7 10 8 7 2 3 4 4 4 5 5 13 13 15 15 10 10 9 10 11 12 13 12 12 11 9 8 9 13 14 13 13 13 14 15 14 10 8 5 4 6 6 7 6 6 8 10 12 13 13 14 16 16 17 17 17 17 16 17 16 17 18 18 18 18 17 16 16 16 16 17 17 17 17 18 16 15 15 15 16 16 15 17 17 17
8 8 8 11 3 4 5 5 5 4 6 6 7 10 12 6 4 1 5 6 9 12 10 7 8 7 7 9 11 13 16 15 14 14 14 13 10 7 6 7 8 6 6 7 8 7 7 9 9 10 10 12 13 14 16 16 17 17 17 17 18 17 18 18 18 18 18 18 17 17 17 17 18 18 18 18 17 15 16 16 16 16 17 17 15 17 19
8 8 8 8 9 11 8 4 8 4 5 3 2 5 3 7 4 2 2 5 5 7 6 5 5 7 8 11 10 12 16 15 13 10 8 7 6 7 7 6 7 8 8 8 8 9 9 9 10 8 9 11 12 13 15 15 17 17 18 18 18 17 16 16 16 16 16 16 17 17 17 18 19 19 18 16 16 15 16 16 17 17 15 15 16 17 19
8 10 10 9 9 5 6 7 7 7 2 2 3 2 9 7 4 3 1 4 4 5 5 5 5 5 9 10 8 7 11 6 3 4 3 4 4 5 5 7 8 8 7 7 9 9 9 9 8 9 10 12 13 13 14 15 16 16 17 17 17 17 15 14 13 14 15 16 16 17 18 19 18 18 17 16 14 13 15 15 15 13 14 14 16 16 17
9 9 10 11 6 5 6 6 5 6 3 2 5 7 6 9 4 3 2 4 5 6 5 5 5 6 8 8 3 9 9 7 5 4 5 5 5 4 5 4 5 7 7 8 9 10 10 8 7 8 10 10 11 11 13 14 15 16 17 14 11 11 11 13 13 14 14 16 17 17 18 17 15 15 13 13 15 15 15 14 14 14 14 15 16 15 15
10 11 9 7 6 4 1 5 5 5 2 1 6 6 5 4 2 1 2 5 5 5 6 4 6 4 5 8 9 8 8 8 5 4 4 5 5 5 5 6 6 6 4 4 5 4 3 1 3 6 8 9 10 10 11 12 14 13 11 10 11 12 12 13 14 15 14 15 16 16 15 13 13 13 12 14 14 14 15 14 14 14 15 14 14 15 15
11 11 12 10 7 2 2 8 10 3 4 6 5 4 3 2 3 1 4 4 4 4 6 6 7 8 11 13 12 11 9 7 6 6 6 6 5 4 6 5 4 5 4 4 4 2 1 1 4 5 6 8 9 9 11 12 12 9 8 10 10 12 14 14 14 14 14 13 13 12 11 11 11 12 12 12 12 13 12 12 14 15 15 14 16 16 16
9 10 10 8 9 5 7 7 3 4 9 4 6 3 2 2 3 4 3 3 3 3 6 7 9 11 11 11 10 9 9 9 6 5 6 6 7 7 6 6 7 6 3 4 4 6 4 4 2 2 6 7 8 8 9 10 9 9 8 9 10 12 12 13 13 12 12 13 12 11 12 13 13 12 12 13 13 12 13 14 15 16 17 16 16 16 15
11 10 11 6 1 8 7 7 4 6 8 9 8 8 6 1 4 4 4 3 4 6 7 9 9 10 10 9 9 10 9 7 6 3 3 4 5 4 5 6 6 7 3 4 5 6 7 6 4 3 3 6 6 7 5 3 5 6 7 7 8 9 10 11 11 11 11 13 13 12 13 13 13 13 13 13 12 11 12 13 14 15 16 14 15 16 15
4 5 5 7 14 11 7 7 7 10 12 10 9 7 7 7 3 3 5 4 5 7 7 8 8 7 7 8 8 8 7 6 5 4 3 3 3 2 4 5 5 4 5 5 6 7 7 8 7 7 5 5 7 6 5 2 3 4 6 6 7 8 9 10 10 10 10 11 12 12 12 13 12 13 14 13 12 12 12 13 14 15 14 14 15 14 15
7 13 14 13 13 14 11 9 8 10 13 12 10 9 8 4 6 5 5 5 6 5 5 6 7 7 6 6 7 6 5 5 3 3 2 1 2 2 3 4 4 4 5 7 7 8 9 8 7 7 7 7 7 5 3 2 1 3 5 6 7 8 8 9 10 10 11 11 12 12 13 12 12 12 12 13 12 12 13 14 14 14 13 15 14 14 14
6 6 2 10 12 14 13 12 12 10 9 9 9 9 8 7 7 6 4 4 4 3 4 3 4 3 3 4 4 4 4 3 2 2 1 2 3 4 4 4 4 4 5 7 8 9 9 9 7 7 8 7 6 4 3 0 1 2 3 5 6 7 8 8 8 9 10 10 10 11 12 11 11 11 11 11 11 12 12 14 13 12 14 13 14 14 15
10 11 12 15 16 15 16 13 11 10 11 12 12 10 9 9 7 7 4 2 1 1 1 3 4 2 3 5 6 3 2 3 2 2 2 3 4 5 5 5 5 5 6 7 8 8 8 8 7 8 8 8 7 5 4 3 1 3 3 3 5 6 7 6 6 7 8 8 8 8 9 10 10 10 10 11 11 13 12 13 13 13 13 14 14 15 15
10 13 14 15 16 17 18 17 14 8 6 10 13 13 13 10 9 7 3 0 2 2 2 1 3 4 5 5 6 4 4 4 4 4 4 4 5 5 6 7 7 6 6 7 8 8 8 7 8 7 8 7 6 6 5 5 5 5 4 5 5 5 4 4 4 4 5 5 7 7 7 9 9 9 10 11 12 11 13 9 9 10 13 14 15 15 15
12 11 9 6 9 9 8 7 4 8 10 11 13 14 14 12 10 9 6 2 2 3 4 4 2 3 4 5 5 4 5 5 5 5 4 4 4 5 5 5 7 7 7 7 7 8 7 7 7 7 7 7 7 7 6 5 5 7 8 8 7 5 4 4 4 3 3 4 4 5 7 8 7 5 10 12 9 4 3 8 9 9 4 3 4 5 7
11 10 10 7 9 12 14 14 13 12 12 12 13 13 13 13 10 10 8 3 4 4 4 4 4 3 3 4 4 5 5 5 5 5 6 6 5 5 5 6 7 6 6 6 8 8 7 7 7 7 7 7 7 7 7 6 5 6 7 7 6 6 5 5 4 3 3 2 2 3 4 4 4 2 1 6 7 5 2 1 2 4 4 7 8 10 8
18 18 17 15 14 16 17 16 15 14 13 12 15 14 14 13 9 7 6 4 3 5 4 4 4 5 4 4 4 6 6 6 5 6 6 5 6 7 7 7 7 7 7 7 7 7 6 6 7 7 7 7 7 7 6 5 5 6 5 5 5 5 5 6 5 4 5 4 4 3 3 1 0 3 2 5 2 2 2 1 4 6 7 10 11 12 14
14 12 13 13 14 17 17 17 16 15 15 14 14 14 14 13 10 10 5 2 1 6 5 3 4 5 5 5 6 6 7 6 6 5 6 7 8 8 7 8 8 8 8 6 6 6 7 7 8 7 7 8 7 7 7 6 6 6 6 6 5 5 5 5 5 4 4 4 3 3 3 3 3 2 3 2 2 3 3 5 6 7 9 11 13 14 15
15 14 15 16 16 17 17 16 19 18 18 16 15 14 14 13 11 8 4 5 1 5 5 3 5 6 5 6 6 7 8 8 6 6 7 8 8 8 9 9 9 8 8 8 8 8 9 9 8 9 9 9 9 9 8 7 7 7 7 7 6 5 5 5 5 5 5 5 5 5 5 4 4 4 3 3 3 3 4 4 1 4 8 12 13 14 14
16 15 16 17 19 20 18 18 15 13 12 12 14 15 14 10 8 7 4 3 4 5 7 6 4 4 6 7 8 8 9 8 8 9 8 9 10 8 8 8 9 9 9 9 9 9 9 10 11 11 11 10 9 8 8 8 8 8 8 8 8 9 9 5 4 5 5 5 6 5 5 4 4 4 4 3 2 2 3 3 5 6 7 5 6 8 9
18 18 17 18 19 18 15 15 16 17 17 16 15 14 12 9 9 10 7 6 3 7 6 6 5 4 6 6 7 7 8 9 9 9 9 9 8 8 9 10 10 9 9 9 9 8 8 9 9 10 11 10 9 9 9 8 9 8 8 7 8 7 7 6 5 5 5 4 4 4 3 3 2 3 3 2 2 1 1 2 4 5 6 6 8 9 13
17 18 18 20 21 20 17 16 15 14 14 13 12 10 11 12 12 10 6 6 6 7 6 7 7 5 6 6 7 7 8 9 10 10 10 9 8 7 8 9 10 10 10 9 9 9 10 11 11 10 10 10 9 9 9 9 9 9 8 8 7 7 7 6 5 5 4 4 4 3 2 1 1 2 2 2 2 1 1 2 4 5 6 7 9 10 8
17 17 18 18 19 18 18 18 17 16 13 11 11 10 11 13 12 10 7 7 6 6 6 6 6 6 6 6 7 8 8 9 9 9 10 10 10 9 8 7 9 10 10 11 11 10 11 12 12 12 11 10 10 9 9 9 9 10 10 10 9 6 6 6 3 4 4 4 3 2 1 1 1 1 2 2 1 1 2 2 4 5 6 7 9 10 12
13 13 15 15 16 17 19 19 17 15 14 12 11 10 13 13 13 9 9 6 5 6 4 6 6 7 7 6 6 7 8 8 9 10 11 10 11 10 10 11 10 10 10 11 11 12 12 13 13 12 11 11 11 10 9 8 8 7 7 7 8 7 4 6 7 6 5 4 4 3 3 2 2 2 2 1 1 1 2 3 4 5 6 7 8 9 11
16 16 18 16 15 16 17 15 14 12 12 11 12 15 14 15 14 11 8 7 6 7 6 5 7 7 6 6 7 7 8 8 9 10 11 11 11 11 10 11 11 10 11 12 12 12 12 13 13 11 10 10 10 10 9 8 7 7 7 6 7 7 8 10 4 6 5 4 4 4 4 4 3 3 2 2 2 2 2 3 4 5 6 6 7 8 10
16 16 14 15 14 14 14 14 14 11 10 10 9 9 10 10 9 9 8 8 8 5 6 6 5 7 7 8 8 8 9 9 9 10 12 12 11 11 11 10 11 11 12 11 11 11 12 13 12 12 11 11 10 10 10 9 8 7 7 7 7 7 6 7 6 2 5 4 5 5 4 3 3 2 3 2 2 1 2 2 3 4 5 6 6 6 7
14 11 10 13 14 14 15 15 11 9 9 9 7 7 9 8 8 8 8 9 9 8 7 7 7 7 8 9 8 8 9 10 10 11 12 11 11 11 11 11 11 12 12 12 12 12 11 11 11 11 11 11 10 9 9 9 8 7 7 6 6 6 6 5 5 5 5 5 4 3 2 3 4 5 4 3 2 2 2 2 3 3 3 4 4 5 7
11 9 6 11 12 9 8 11 10 10 10 9 9 7 8 8 8 7 6 7 9 8 7 7 8 9 9 9 8 9 12 12 11 11 11 10 11 11 11 12 12 12 12 12 12 12 13 13 11 10 10 11 11 10 9 9 8 7 7 6 6 6 6 5 5 5 5 5 5 5 5 5 4 2 1 3 3 2 0 1 2 3 2 3 3 5 7
5 4 6 9 12 12 11 10 10 10 9 7 7 10 10 8 7 8 8 8 8 7 7 9 10 10 10 10 10 10 10 10 10 10 9 9 8 8 10 12 11 11 11 13 13 13 12 12 15 12 9 10 11 12 11 8 8 7 6 6 5 5 5 5 5 5 5 5 4 4 4 3 2 3 4 3 2 3 2 1 1 2 2 2 4 5 6
6 6 9 9 9 10 11 9 9 9 6 7 6 6 7 7 6 6 7 7 8 9 10 10 11 12 13 12 12 13 12 11 10 10 10 9 9 11 12 12 12 12 11 12 12 12 12 13 14 13 11 11 12 13 13 14 7 7 6 6 6 5 5 5 5 5 5 5 5 4 5 4 4 3 3 3 4 3 3 2 0 0 2 1 2 4 5
18 16 15 12 9 8 7 6 6 6 6 6 4 6 7 7 8 8 8 8 8 9 8 7 11 14 15 14 15 15 14 13 13 13 13 13 13 15 16 15 13 12 12 11 10 10 10 12 15 13 12 12 12 12 13 13 13 9 8 8 7 7 7 7 7 7 7 6 6 6 5 6 6 5 4 4 4 4 4 4 3 3 2 1 0 1 2
20 18 16 14 14 15 18 16 15 12 9 7 7 7 8 9 12 13 12 11 12 11 11 12 15 15 16 16 15 14 14 13 13 14 15 15 15 17 16 14 12 11 10 9 10 10 11 12 12 11 11 10 11 11 12 13 11 9 9 8 8 8 8 8 7 7 8 8 8 8 7 8 8 8 8 7 6 6 5 5 6 5 5 3 3 2 1
20 18 19 19 18 16 16 14 14 14 14 12 10 12 12 12 14 14 13 13 12 9 10 12 13 14 16 17 17 15 15 14 14 14 14 13 13 14 14 15 14 12 12 13 12 12 17 20 14 12 11 12 11 10 11 13 11 10 9 9 8 8 8 8 8 7 7 7 8 8 8 8 9 8 7 8 8 8 7 5 4 4 3 3 4 3 2
19 18 19 19 17 18 19 18 18 16 14 14 14 17 15 13 16 17 13 13 13 13 14 13 14 14 15 15 15 15 14 14 15 14 12 12 14 13 14 14 12 12 13 12 12 14 17 17 15 12 12 12 13 13 10 13 11 10 10 9 9 9 8 9 9 9 9 8 8 8 8 7 7 7 8 8 8 9 9 9 7 4 4 4 4 3 2
16 17 18 18 19 20 20 18 19 20 18 17 18 20 20 17 18 18 15 14 15 15 15 16 18 14 11 13 15 15 15 15 16 16 16 15 13 11 12 12 12 12 15 15 15 15 14 15 15 15 13 12 12 18 16 12 11 11 11 11 10 10 10 9 9 8 8 8 8 8 9 9 9 9 9 9 9 9 9 8 8 8 6 4 3 3 3
16 15 15 14 12 13 15 16 16 17 17 16 15 16 14 13 15 16 15 16 16 15 15 15 15 15 12 11 12 12 13 13 14 14 14 15 15 14 12 10 11 13 20 15 14 13 14 13 13 13 18 15 13 18 16 12 12 12 11 11 11 11 11 10 10 9 9 8 8 8 9 9 9 10 10 9 9 8 9 9 9 8 7 6 6 5 3
17 15 14 14 15 14 12 13 13 13 12 13 14 15 15 14 13 13 13 14 14 14 13 14 14 13 12 12 13 11 10 10 10 10 11 11 13 15 14 12 11 15 22 14 14 14 14 14 14 17 20 20 20 18 13 12 12 12 12 12 12 11 12 11 11 10 10 10 10 9 9 10 10 10 10 10 9 9 9 9 9 8 8 7 6 5 4
15 15 16 17 15 13 13 12 12 12 10 11 12 12 10 10 11 11 11 12 13 13 12 12 12 12 11 11 10 10 10 10 10 10 11 12 12 12 12 13 14 13 15 17 13 14 14 14 17 22 18 16 17 17 12 12 12 12 12 12 12 12 12 12 11 11 11 11 10 10 10 10 10 11 10 10 10 11 11 10 10 10 9 9 8 7 6
16 15 15 16 16 13 11 10 9 9 11 13 14 14 11 10 10 11 11 11 12 12 11 11 10 10 10 11 11 11 12 12 13 13 12 11 11 9 10 13 12 13 18 18 12 12 12 21 21 17 18 19 17 13 12 12 12 12 13 12 12 12 11 11 11 11 11 11 11 11 11 10 10 10 10 10 10 11 11 12 10 10 10 10 10 10 8
14 14 15 14 13 13 13 12 12 13 14 13 13 11 10 10 10 10 10 11 12 12 12 12 12 12 12 11 9 9 10 10 10 10 9 9 9 10 11 14 14 17 14 12 12 13 13 14 17 18 17 19 18 13 13 12 12 12 13 12 12 12 11 11 11 11 11 11 11 11 12 12 11 10 10 10 10 10 11 11 12 11 11 10 9 10 11
13 13 13 14 13 12 12 13 14 13 13 12 12 10 9 9 10 10 10 10 11 12 12 12 12 12 12 12 12 12 9 8 9 9 9 9 8 9 9 9 10 11 12 13 15 17 20 18 18 17 18 17 13 13 13 13 12 12 12 12 12 12 12 12 11 11 11 11 11 11 11 11 11 11 11 11 11 11 11 11 11 11 12 12 12 9 9
12 12 12 12 13 14 13 12 12 12 10 10 10 8 8 9 10 10 10 10 11 11 11 12 12 11 11 12 12 10 10 10 10 9 8 9 9 9 9 11 15 14 10 10 11 11 15 16 16 15 17 16 12 12 12 12 13 12 12 12 11 12 12 12 12 11 11 11 11 11 11 12 11 11 11 11 11 11 10 11 11 12 12 12 13 12 10
13 12 12 12 12 13 12 10 10 9 8 8 8 8 7 7 8 9 8 9 9 10 10 10 9 9 10 10 10 10 10 11 10 10 9 10 10 9 9 10 10 14 14 10 10 10 13 16 15 16 14 12 12 12 12 12 12 12 11 12 12 10 11 12 12 14 12 12 12 11 11 11 11 11 11 11 11 11 11 11 10 11 14 12 12 13 12
11 11 11 11 10 10 12 11 10 9 9 9 8 8 8 8 9 9 9 8 8 9 9 9 9 9 9 9 9 10 9 9 10 10 8 8 9 10 11 9 10 10 10 9 9 9 9 10 11 12 12 11 11 11 11 11 11 11 11 10 11 11 11 11 10 11 12 11 11 12 12 11 11 11 11 11 11 12 12 12 12 11 11 11 11 11 11
11 10 9 9 9 9 10 10 10 10 10 9 9 9 9 8 8 9 10 12 9 9 9 9 10 9 9 9 9 9 9 9 8 9 9 9 9 8 9 11 9 9 9 9 9 9 9 9 10 13 13 11 10 10 10 11 10 10 10 10 9 10 11 11 10 9 9 10 10 10 12 12 11 11 12 12 11 11 11 12 12 11 11 11 11 11 10
Wind_Direction
352 322 346 352 295 287 346 219 203 204 210 210 216 221 226 221 223 237 198 214 223 233 234 225 233 236 259 258 269 290 316 307 285 274 330 323 245 184 184 188 197 204 205 208 211 213 210 210 210 208 207 206 205 204 204 202 202 201 196 194 195 196 197 198 199 198 197 198 199 199 199 199 202 206 208 207 207 206 205 207 207 209 208 205 202 202 201
264 219 225 216 209 192 218 222 221 218 214 218 225 231 230 230 235 241 250 238 235 231 242 249 255 256 258 266 275 281 277 277 301 309 298 297 262 219 208 195 197 204 211 208 206 209 209 211 211 210 208 207 205 204 203 200 201 201 196 196 196 196 198 200 197 193 193 194 194 195 196 199 200 202 206 205 206 206 206 206 207 208 208 207 206 202 201
220 210 210 178 226 225 239 233 236 230 230 232 228 233 234 245 247 241 239 244 249 238 250 265 264 259 263 267 268 274 288 294 292 291 285 276 269 272 260 203 191 193 205 207 206 206 206 207 208 209 209 208 207 208 205 203 201 200 196 196 197 198 200 199 192 188 189 192 190 193 196 196 197 199 202 204 204 205 206 205 207 205 207 208 209 206 203
211 183 207 200 239 248 247 241 231 226 222 224 216 222 221 226 230 243 249 249 243 244 247 254 265 273 274 272 273 272 270 273 280 278 274 266 256 262 283 293 234 182 200 204 210 211 210 208 206 208 209 208 206 210 206 205 202 197 197 197 198 199 200 192 188 187 188 187 189 191 191 196 196 197 198 203 204 203 203 204 204 206 206 207 209 209 208
210 144 191 221 251 260 246 230 224 222 223 229 228 227 224 226 228 233 234 241 251 257 254 256 244 249 255 256 258 266 268 271 276 278 277 274 277 286 292 295 269 247 238 221 210 220 217 213 211 210 207 207 209 209 208 205 200 198 201 200 198 198 196 191 187 187 184 186 188 188 191 192 193 194 196 201 204 203 205 204 203 206 205 206 208 210 211
208 120 217 275 228 224 236 255 212 214 216 211 220 221 221 221 216 238 247 258 255 242 239 242 252 256 259 263 263 261 265 267 267 270 274 281 288 290 293 294 288 277 243 243 241 225 225 223 218 213 209 211 211 207 205 200 202 202 200 202 196 195 193 193 188 186 187 188 189 191 188 188 190 196 197 202 204 205 205 204 206 206 206 207 208 209 211
246 243 245 217 221 228 77 113 73 133 218 230 237 239 236 233 225 233 242 245 250 258 262 272 280 284 281 272 274 276 273 283 278 275 277 280 282 285 285 280 277 264 243 246 246 246 243 237 226 219 215 215 210 205 201 199 198 198 199 200 199 194 192 192 190 188 190 193 191 189 189 189 192 198 201 203 204 207 208 208 208 210 211 208 210 210 211
269 265 215 216 210 46 169 108 83 88 157 196 228 243 238 241 246 258 261 255 256 254 255 258 262 265 279 292 285 276 273 269 265 267 270 270 272 274 278 292 304 288 268 263 266 266 255 239 232 224 220 212 208 207 202 202 200 197 197 197 200 197 194 192 192 191 190 190 189 189 190 191 195 199 202 203 205 205 209 211 212 214 215 211 212 211 217
243 229 232 234 19 294 210 158 151 163 165 153 213 225 216 190 75 265 258 271 268 270 278 291 282 315 316 281 270 266 263 256 249 254 262 268 271 279 284 284 284 290 282 269 269 261 245 246 239 228 219 211 210 206 201 201 198 198 195 195 199 199 198 194 191 189 188 187 188 189 191 193 198 202 204 206 207 203 207 210 210 211 214 214 217 217 214
232 243 241 237 239 245 225 137 111 90 91 33 26 293 191 113 101 76 245 254 270 279 290 290 315 306 280 268 264 259 256 247 241 243 255 264 275 279 287 293 287 277 267 264 254 250 251 241 241 236 217 210 206 206 204 199 197 198 197 198 197 198 198 195 191 187 186 186 187 189 190 196 199 202 204 204 205 201 206 207 210 212 210 212 213 213 213
216 226 241 233 233 231 68 119 117 94 121 88 134 178 238 110 85 89 302 276 292 297 309 317 317 261 249 254 258 18 357 6 348 285 268 273 289 306 306 303 298 299 301 289 278 257 248 245 230 222 218 209 206 205 204 202 198 200 203 203 199 197 194 189 184 177 182 187 189 190 194 199 201 201 201 202 201 200 208 210 214 213 213 216 218 217 220
232 235 226 232 228 245 160 147 104 104 98 121 217 234 220 113 61 34 330 312 311 314 317 307 275 247 243 248 17 1 348 348 350 332 320 313 318 305 311 312 333 315 298 280 256 245 232 227 229 212 208 207 210 202 200 203 203 205 208 206 200 194 187 185 179 179 185 191 194 195 199 201 200 202 199 197 200 201 205 209 213 215 216 219 221 221 217
222 232 246 255 243 249 159 179 125 105 44 289 216 228 75 158 12 321 322 296 311 307 301 295 269 247 284 314 322 332 333 313 326 333 322 309 313 318 332 355 344 313 301 300 305 320 17 334 245 214 202 199 204 199 196 203 212 209 203 198 193 190 185 184 185 190 194 196 197 200 201 198 197 198 199 203 202 203 207 209 213 215 217 220 222 224 221
221 216 231 236 260 278 314 222 248 193 263 213 237 65 227 193 256 199 270 297 298 307 283 281 276 289 295 295 298 296 307 321 322 320 327 331 336 350 6 350 353 338 331 344 310 357 19 213 214 213 203 200 199 192 193 204 211 211 197 189 186 183 184 189 192 194 197 198 200 201 198 195 197 201 205 206 206 209 213 213 215 220 224 225 233 236 235
227 229 229 224 226 116 359 6 234 221 238 350 19 313 169 255 282 295 291 292 311 305 289 285 289 288 289 292 299 311 307 301 309 323 338 340 342 349 355 356 6 351 4 354 5 358 9 18 25 175 189 188 194 194 201 202 201 201 197 188 187 186 186 192 194 193 194 192 191 198 200 200 199 201 205 208 211 211 215 226 228 230 230 231 231 234 238
220 211 216 209 121 20 5 356 290 17 318 347 340 340 293 62 310 308 308 302 337 319 297 293 294 294 290 291 296 297 287 284 284 294 322 327 319 330 353 1 358 339 38 21 22 20 13 16 26 39 157 170 180 180 156 116 175 178 184 188 189 190 191 194 192 192 192 195 198 202 201 200 202 206 209 210 211 212 212 217 228 230 233 228 231 232 232
304 258 259 349 327 304 326 331 331 340 330 330 347 319 320 314 327 357 289 311 301 299 299 288 290 292 289 292 294 293 301 301 295 292 311 340 320 329 4 8 12 17 36 27 28 29 27 26 27 34 53 114 117 97 66 86 144 166 177 180 186 194 195 193 191 191 193 198 200 201 200 200 200 204 207 205 209 210 213 217 224 230 230 231 229 230 235
299 281 273 280 281 291 301 335 329 330 328 329 328 337 323 337 324 320 315 318 306 301 297 287 275 279 289 291 285 275 275 278 276 275 287 346 5 14 21 22 29 40 52 49 42 39 38 36 41 40 49 62 69 57 46 51 143 174 190 189 192 196 195 194 193 194 194 199 201 201 200 202 203 206 206 207 211 210 214 223 227 228 232 236 233 233 236
293 273 254 264 275 286 306 308 316 311 310 320 334 327 330 323 316 305 303 306 312 306 323 354 340 313 326 290 278 286 280 273 284 304 341 25 35 33 28 25 32 55 56 56 48 44 45 41 46 55 59 66 72 73 60 81 157 181 193 190 192 194 197 198 196 201 200 203 204 204 205 209 210 210 211 215 214 217 217 227 222 225 234 235 235 235 237
255 268 288 297 295 294 292 288 293 307 308 309 316 320 314 315 306 294 305 298 345 288 1 1 336 337 5 356 339 311 344 359 3 12 19 29 52 55 43 42 45 65 68 68 63 60 58 54 53 55 57 57 49 48 55 30 51 155 157 173 186 186 191 196 196 199 204 205 208 210 203 208 213 214 219 223 225 226 224 230 231 231 232 232 236 239 244
270 270 266 269 279 279 275 274 267 281 312 314 322 314 308 307 294 280 243 10 73 79 98 88 31 31 34 5 333 340 19 17 24 29 34 28 32 36 47 44 39 53 65 74 75 72 65 58 58 57 55 54 56 53 46 34 30 60 94 139 140 136 147 162 172 182 194 193 208 216 213 215 222 231 231 230 231 232 237 241 256 254 247 246 243 247 250
257 256 261 275 261 257 255 254 350 341 326 316 312 315 309 303 305 295 268 184 102 73 62 57 57 46 31 9 341 30 19 23 28 32 24 33 46 55 58 58 53 57 57 70 77 73 71 67 69 67 64 63 61 57 54 63 78 86 79 82 95 110 136 152 169 147 164 187 191 216 219 220 218 195 65 72 64 5 338 38 65 91 83 328 334 345 319
258 257 258 268 288 288 284 290 296 305 312 306 305 308 310 300 296 300 288 226 136 96 84 77 75 68 49 30 18 40 46 33 35 42 43 44 53 62 63 80 76 65 61 63 69 70 70 72 71 66 63 59 52 50 54 56 77 101 108 109 112 113 109 105 99 115 145 151 174 209 228 233 232 282 204 77 77 106 166 305 36 340 283 266 261 254 248
268 271 277 279 277 274 281 286 291 291 295 296 292 294 294 294 288 284 279 283 141 108 80 85 92 84 66 50 47 56 56 53 55 68 69 74 71 67 65 70 72 76 71 58 57 67 68 73 78 74 69 57 48 43 39 48 63 72 89 110 114 113 111 116 138 135 122 128 141 144 153 193 82 97 281 260 173 130 194 215 328 311 300 292 286 281 278
267 275 280 278 274 274 276 281 281 280 279 279 281 285 288 285 274 267 262 278 93 97 105 130 120 95 87 76 66 62 66 66 56 60 74 74 69 67 73 75 76 77 78 82 85 81 81 82 83 78 68 60 53 52 54 55 59 69 76 85 93 95 104 104 98 90 119 120 137 143 140 155 153 186 186 152 113 110 162 196 221 246 268 268 274 278 274
254 262 267 269 269 266 266 271 267 264 265 265 268 269 265 259 266 265 200 189 159 97 79 30 76 81 71 69 64 72 78 74 67 63 65 59 63 68 68 69 71 74 77 77 79 81 82 80 78 75 71 67 60 57 58 58 61 69 70 71 75 88 91 80 81 91 98 105 107 106 103 101 99 117 100 69 61 26 360 2 300 260 245 246 252 262 268
264 262 263 266 264 261 255 252 259 260 262 259 256 254 250 238 229 236 200 165 124 109 106 92 56 58 80 76 73 64 65 67 67 58 56 63 67 64 70 77 75 70 72 74 71 69 69 73 73 70 66 61 60 61 65 67 70 73 79 84 89 68 40 52 88 77 83 89 91 94 96 94 105 105 102 95 80 46 18 355 342 330 334 303 248 219 269
267 261 253 253 256 254 255 251 252 257 255 255 260 257 236 218 215 221 180 150 160 103 95 95 91 80 78 69 74 75 69 63 63 63 59 56 61 72 75 77 80 80 79 76 75 71 70 68 61 60 61 64 68 67 68 72 75 78 78 82 83 90 99 91 77 74 80 82 78 87 85 97 86 80 84 91 81 50 353 338 335 325 314 316 321 321 299
251 247 248 247 248 251 255 261 262 259 255 243 243 234 220 214 217 221 188 170 144 125 111 100 90 69 66 68 68 74 68 64 63 62 63 60 53 59 73 79 82 81 78 77 74 73 71 68 63 58 54 56 60 67 72 68 67 64 63 63 73 82 81 77 76 84 83 69 64 46 50 78 101 103 105 84 48 357 2 12 349 334 326 328 327 318 304
249 256 254 246 241 240 243 246 244 245 245 227 219 220 219 216 217 209 185 173 152 134 125 117 101 83 68 68 69 76 77 71 68 65 64 58 53 44 47 66 73 69 68 65 63 62 63 62 59 54 47 41 52 56 63 70 72 74 76 64 57 54 60 30 80 106 74 71 76 202 182 122 89 55 83 75 63 31 359 5 351 339 336 342 336 337 338
268 265 254 247 244 240 233 232 233 232 224 205 206 215 218 216 219 215 191 156 130 104 98 114 111 103 88 76 70 76 79 80 80 77 71 62 56 52 49 52 59 60 58 56 56 57 57 57 55 53 47 44 46 52 58 67 72 78 81 95 102 111 42 329 21 20 58 37 41 16 28 347 50 47 46 31 57 26 23 14 11 5 4 0 355 353 348
264 260 251 245 243 229 215 217 219 208 198 192 198 208 213 212 211 192 178 141 121 114 116 110 110 98 94 96 96 90 84 82 80 76 75 70 63 59 56 57 53 51 56 56 55 56 58 58 57 58 58 50 48 51 53 56 64 64 66 61 58 63 36 351 61 66 40 42 29 24 23 1 21 10 46 32 24 29 34 24 27 22 27 13 8 2 352
232 234 234 223 212 206 206 201 183 171 167 180 196 206 213 213 201 177 158 142 132 144 135 124 113 107 103 100 94 90 91 83 71 70 73 70 64 60 58 56 55 53 52 49 50 52 54 55 55 53 55 57 53 49 47 50 50 51 52 47 60 61 58 45 332 359 64 36 49 18 11 15 355 12 44 4 26 5 30 27 31 35 35 29 18 9 11
213 211 199 181 179 180 183 180 175 150 163 184 195 199 204 200 186 174 150 141 139 146 144 134 126 116 106 96 88 80 85 81 70 68 64 60 56 58 61 61 57 52 48 43 47 48 48 50 52 51 47 48 51 52 49 48 49 53 51 48 51 50 51 50 34 40 53 46 35 49 24 22 26 11 12 31 7 16 14 5 40 18 20 26 18 348 354
208 208 192 166 168 158 171 163 160 163 174 183 184 182 192 183 175 151 137 138 131 132 142 142 135 118 98 88 76 74 75 77 75 63 58 57 59 63 66 62 58 55 50 44 42 46 49 48 45 52 52 51 49 48 49 48 50 50 49 59 53 49 45 49 45 39 29 37 24 21 23 17 30 55 24 353 18 335 1 30 31 36 39 7 351 343 343
190 162 155 160 159 159 155 156 158 165 172 172 171 181 178 170 161 147 151 143 136 139 138 126 109 99 99 96 90 82 81 75 68 60 52 45 42 44 48 44 38 36 40 45 43 45 42 42 35 36 51 51 50 47 37 31 58 51 50 43 52 51 50 42 41 47 34 13 23 22 20 13 344 17 357 352 7 356 354 333 18 82 71 27 353 358 355
38 113 130 137 144 152 154 157 153 157 159 154 182 179 163 154 148 134 138 141 137 128 117 107 96 94 95 96 93 88 81 76 68 63 58 51 50 52 50 47 41 38 37 41 28 31 40 44 39 33 48 52 50 45 31 17 46 55 47 42 45 40 39 39 32 25 27 23 7 5 354 340 348 351 347 349 353 360 346 323 2 64 99 70 9 357 8
42 39 46 55 75 96 101 111 123 125 116 87 61 80 103 119 113 92 68 62 84 91 84 91 99 99 98 92 84 79 76 73 72 68 65 62 59 62 56 51 45 42 42 33 18 19 28 34 40 43 47 48 49 47 41 27 31 45 50 44 40 37 33 30 34 28 23 19 10 6 2 1 349 346 350 349 358 2 349 335 341 312 314 265 251 8 349
43 43 47 46 41 51 57 56 56 56 62 85 102 89 92 109 105 89 79 75 86 100 104 101 95 93 90 83 77 71 69 72 75 77 74 70 67 65 62 55 51 44 39 33 34 32 27 31 38 38 37 35 43 48 37 30 39 56 54 56 50 45 38 35 32 34 28 26 24 13 18 12 2 359 357 357 357 353 14 23 334 323 315 315 300 281 270
42 44 49 54 52 55 59 55 58 51 41 38 60 65 59 78 88 79 73 70 62 65 77 79 77 79 80 82 82 77 72 68 70 70 68 66 67 69 67 56 43 40 36 37 40 37 34 34 38 40 35 33 30 36 39 31 37 46 45 44 46 47 45 41 41 35 34 29 30 25 20 19 23 16 13 5 359 354 346 349 339 330 313 306 306 327 329
41 43 48 51 51 56 55 52 61 57 50 48 51 64 56 51 66 65 57 61 61 59 58 64 71 71 74 73 72 69 64 59 56 56 58 62 61 59 59 52 35 34 35 41 42 42 41 39 35 33 34 34 34 28 35 35 39 43 42 39 37 36 37 36 35 37 36 31 29 26 26 25 28 30 24 20 18 7 1 354 353 354 339 331 337 344 336
30 36 43 48 49 51 52 47 53 57 48 44 42 48 49 43 57 64 58 60 58 56 56 55 58 62 63 68 69 65 61 58 57 56 54 55 54 56 55 50 36 37 37 43 44 43 40 38 35 32 29 31 36 35 38 42 41 41 40 37 34 33 31 30 31 31 30 33 30 29 28 22 21 22 24 28 29 19 9 4 358 1 11 8 351 354 345
35 36 36 39 39 49 62 62 57 55 50 44 50 54 48 47 55 60 58 56 56 54 52 53 49 44 38 45 51 54 59 57 54 54 56 55 52 49 53 53 43 38 41 44 44 45 40 36 33 33 31 33 35 36 42 43 41 39 38 38 36 34 32 30 26 25 25 24 26 31 29 26 27 26 24 21 22 23 15 11 9 2 356 355 3 4 1
39 41 44 47 50 52 55 59 56 54 54 48 42 45 47 44 47 54 60 65 62 57 56 56 53 48 39 45 49 42 35 38 48 50 55 55 51 45 40 42 41 42 42 44 43 42 39 34 32 29 32 33 37 39 43 43 42 39 38 36 35 34 33 30 29 27 25 23 24 26 30 31 29 28 29 26 19 21 17 13 8 5 4 2 360 9 19
33 39 43 46 45 44 46 47 54 60 61 61 54 50 49 55 55 52 54 55 60 60 56 56 57 53 48 49 55 55 53 49 46 45 53 52 52 44 32 38 40 39 39 42 45 42 37 32 22 25 26 25 38 42 44 43 41 39 37 38 36 35 33 31 29 27 25 25 25 26 31 36 39 35 33 33 30 31 24 16 12 8 11 15 10 13 15
30 34 38 44 41 40 40 47 45 53 57 58 60 56 44 45 54 56 53 56 58 58 57 53 44 39 51 65 64 60 61 58 54 53 55 55 57 51 42 46 45 45 43 42 39 37 35 30 25 20 26 31 35 43 44 43 40 39 36 35 34 33 31 30 28 27 26 24 25 26 25 27 32 37 38 38 37 35 31 27 25 19 17 17 22 21 26
35 34 33 36 44 47 46 50 53 54 55 57 57 51 41 45 49 53 56 58 62 62 59 56 53 48 43 41 46 59 65 63 56 46 51 53 54 53 44 44 48 51 51 48 43 37 31 30 28 23 26 36 39 40 39 39 39 39 37 34 32 30 29 26 24 27 26 26 23 27 29 29 28 30 32 39 42 40 35 31 31 30 28 20 19 21 25
31 36 40 43 46 44 43 50 52 52 53 57 69 69 60 63 65 65 63 66 68 69 66 64 60 52 47 50 51 49 47 55 64 50 42 53 53 51 46 42 39 42 49 57 52 42 32 25 24 26 30 35 41 41 40 38 38 37 37 36 33 30 28 25 22 23 24 25 24 27 28 28 27 29 28 29 34 39 39 34 30 29 29 30 26 19 22
32 32 31 33 34 37 43 49 52 54 56 59 63 62 60 67 69 67 65 68 70 69 67 65 63 60 58 57 55 57 55 54 59 63 46 47 47 47 43 40 35 33 37 43 43 43 34 29 26 26 35 38 38 38 40 41 38 37 38 33 36 34 29 29 25 19 24 25 25 27 28 30 27 26 27 28 29 32 35 41 38 34 31 32 31 28 24
26 29 31 31 34 35 35 43 49 50 54 56 59 53 48 54 62 58 61 67 71 74 72 67 62 58 58 58 57 56 53 55 58 59 57 52 49 48 45 42 40 39 37 34 36 38 36 31 31 31 34 39 40 36 36 37 40 36 35 36 33 36 34 30 33 29 25 28 28 25 26 29 29 26 27 31 29 29 32 34 40 42 38 35 37 36 34
29 32 34 36 37 39 40 43 44 47 50 41 43 47 51 56 58 53 49 53 68 72 75 70 66 63 64 61 59 55 55 57 55 51 53 56 54 50 44 45 45 38 36 36 36 34 38 36 32 26 31 35 40 43 37 34 34 35 33 35 37 33 28 28 29 32 31 28 32 31 27 27 28 27 28 29 29 31 30 31 33 34 33 37 36 36 34
37 34 36 40 43 44 40 39 38 38 38 37 35 38 45 51 54 53 48 41 51 61 60 65 63 53 52 60 60 61 58 52 51 54 50 45 41 45 43 37 37 37 33 32 34 34 34 35 37 37 31 31 32 32 38 37 37 36 33 30 29 36 37 27 20 26 34 30 31 36 35 31 28 31 30 28 28 29 31 32 31 32 35 36 38 40 40